Location: Coopersdale
(40.3556°N, 78.9372°W)
Time: 09:30:57
(UTC+00:00)

Vanguard 1 - Pass Details

Date: 28 January 2021
Orbit: 649 x 3834 km, 34.2° (Epoch: 07 March)

Event Time Altitude Azimuth Distance (km) Brightness Sun altitude
Rises 22:34:28 0° 283° (WNW) 7,535 15.6 -1.7°
Reaches altitude 10° 22:39:28 10° 279° (W) 6,728 15.4 -2.6°
Maximum altitude 23:01:17 51° 212° (SSW) 4,281 13.7 -6.5°
Drops below altitude 10° 23:19:22 10° 143° (SE) 5,656 13.7 -9.8°
Sets 23:23:10 0° 138° (SE) 6,315 13.9 -10.5°
